Weather History for Palma de Mallorca, Spain

Change the Weather History Date:

Tuesday, February 5, 2013

  Actual Average Record
Temperature  
Mean Temperature 49 °F -  
Max Temperature 63 °F 58 °F 64 °F (1999)
Min Temperature 35 °F 39 °F 24 °F (2012)
Degree Days  
Heating Degree Days 16    
Moisture  
Dew Point 43 °F    
Average Humidity 84    
Maximum Humidity 100    
Minimum Humidity 40    
Precipitation  
Precipitation 0.00 in 0.05 in - ()
Sea Level Pressure  
Sea Level Pressure 30.16 in    
Wind  
Wind Speed 3 mph ()    
Max Wind Speed 16 mph    
Max Gust Speed 29 mph    
Visibility 5.7 miles    
Events Fog    
Averages and records for this station are not official NWS values.
T = Trace of Precipitation, MM = Missing Value Source: Averaged Metar Reports

Daily Weather History Graph

Daily Weather History Graph

Search for Another Location

Airport:

Trip Planner

Search our weather history database for the weather conditions in past years. The results will help you decide how hot, cold, wet, or windy it might be!

Date:

Astronomy

Feb. 05, 2013 Rise Set
Actual Time 7:52 AM CET 6:13 PM CET
Civil Twilight 7:24 AM CET 6:42 PM CET
Nautical Twilight 6:52 AM CET 7:14 PM CET
Astronomical Twilight 6:21 AM CET 7:45 PM CET
Moon 3:17 AM CET (2/5) 1:17 PM CET (2/5)
Length of Visible Light 11h 17m
Length of Day
10h 21m
Waning Crescent, 29% of the Moon is Illuminated
Feb 5
Waning Crescent
Feb 10
New
Feb 17
First Quarter
Feb 25
Full
Mar 4
Last Quarter

Hourly Weather History & Observations

Time (CET) Temp. Dew Point Humidity Pressure Visibility Wind Dir Wind Speed Gust Speed Precip Events Conditions
12:00 AM 39.2 °F 37.4 °F 93% 30.30 in - Variable 1.2 mph - N/A   Clear
12:30 AM 37.4 °F 35.6 °F 93% 30.30 in - Calm Calm - N/A   Clear
1:00 AM 36 °F 34 °F 87% 30.31 in 9 mi Calm Calm - -  
1:00 AM 39.2 °F 35.6 °F 87% 30.30 in - Calm Calm - N/A   Clear
1:30 AM 37.4 °F 35.6 °F 93% 30.27 in - Variable 1.2 mph - N/A   Clear
2:00 AM 37.4 °F 35.6 °F 93% 30.27 in - Calm Calm - N/A   Clear
2:30 AM 39.2 °F 37.4 °F 93% 30.27 in - Calm Calm - N/A   Clear
3:00 AM 39.2 °F 37.4 °F 93% 30.27 in - Calm Calm - N/A   Clear
3:30 AM 39.2 °F 37.4 °F 93% 30.27 in - Variable 1.2 mph - N/A   Clear
4:00 AM 37.4 °F 37.4 °F 100% 30.24 in - ENE 2.3 mph - N/A   Clear
4:30 AM 39.2 °F 37.4 °F 93% 30.24 in - Variable 1.2 mph - N/A   Clear
5:00 AM 37.4 °F 37.4 °F 100% 30.24 in - Variable 1.2 mph - N/A   Clear
5:30 AM 39.2 °F 37.4 °F 93% 30.24 in - Calm Calm - N/A   Clear
6:00 AM 37.4 °F 37.4 °F 100% 30.21 in - NE 2.3 mph - N/A   Clear
6:30 AM 39.2 °F 37.4 °F 93% 30.21 in - Calm Calm - N/A   Clear
7:00 AM 37 °F 35 °F 92% 30.23 in 9 mi Calm Calm - -  
7:00 AM 39.2 °F 37.4 °F 93% 30.21 in - Calm Calm - N/A   Clear
7:30 AM 39.2 °F 37.4 °F 93% 30.21 in 6.2 mi Calm Calm - N/A   Partly Cloudy
8:00 AM 37.4 °F 37.4 °F 100% 30.21 in 3.1 mi Calm Calm - N/A Fog Patches of Fog
8:12 AM 37.4 °F 35.6 °F 93% 30.21 in 1.9 mi Variable 1.2 mph - N/A Fog Patches of Fog
8:16 AM 37.4 °F 35.6 °F 93% 30.21 in 0.5 mi Variable 1.2 mph - N/A Fog Patches of Fog
8:30 AM 37.4 °F 35.6 °F 93% 30.21 in 0.1 mi Calm Calm - N/A Fog Patches of Fog
8:35 AM 39.2 °F 37.4 °F 93% 30.21 in 0.6 mi Variable 1.2 mph - N/A Fog Patches of Fog
8:45 AM 39.2 °F 39.2 °F 100% 30.21 in 0.9 mi Calm Calm - N/A Fog Patches of Fog
9:00 AM 41.0 °F 41.0 °F 100% 30.21 in 1.2 mi Calm Calm - N/A Fog Patches of Fog
9:16 AM 42.8 °F 42.8 °F 100% 30.21 in 1.9 mi Calm Calm - N/A Fog Patches of Fog
9:30 AM 44.6 °F 42.8 °F 93% 30.21 in 2.5 mi Calm Calm - N/A Fog Patches of Fog
9:34 AM 46.4 °F 44.6 °F 93% 30.21 in 3.1 mi Calm Calm - N/A Fog Partly Cloudy
10:00 AM 50.0 °F 48.2 °F 94% 30.21 in 4.3 mi Calm Calm - N/A   Partly Cloudy
10:30 AM 55.4 °F 51.8 °F 88% 30.18 in 6.2 mi Calm Calm - N/A   Scattered Clouds
11:00 AM 57.2 °F 53.6 °F 88% 30.18 in 6.2 mi WSW 3.5 mph - N/A   Partly Cloudy
12:00 PM - - N/A% - 6.2 mi WSW 8.1 mph - N/A   Partly Cloudy
12:30 PM 60.8 °F 53.6 °F 77% 30.18 in 6.2 mi WSW 11.5 mph - N/A   Partly Cloudy
1:00 PM 62 °F 44 °F 40% 30.17 in 16 mi NW 10.4 mph - -   Partly Cloudy
1:00 PM 62.6 °F 48.2 °F 59% 30.15 in 6.2 mi WSW 9.2 mph - N/A   Partly Cloudy
1:30 PM 62.6 °F 46.4 °F 55% 30.15 in 6.2 mi NNW 16.1 mph - N/A   Partly Cloudy
2:00 PM 62.6 °F 46.4 °F 55% 30.12 in 6.2 mi WNW 12.7 mph - N/A   Partly Cloudy
2:30 PM 62.6 °F 46.4 °F 55% 30.12 in 6.2 mi NW 13.8 mph - N/A   Partly Cloudy
3:00 PM 62.6 °F 46.4 °F 55% 30.09 in 6.2 mi WNW 12.7 mph - N/A   Partly Cloudy
3:30 PM 62.6 °F 44.6 °F 52% 30.09 in 6.2 mi NW 13.8 mph 28.8 mph N/A   Partly Cloudy
4:30 PM 60.8 °F 44.6 °F 55% 30.09 in 6.2 mi NW 10.4 mph - N/A   Partly Cloudy
5:00 PM 60.8 °F 44.6 °F 55% 30.09 in 6.2 mi NW 9.2 mph - N/A   Partly Cloudy
5:30 PM 59.0 °F 51.8 °F 77% 30.06 in 6.2 mi West 9.2 mph - N/A   Partly Cloudy
6:00 PM 57.2 °F 50.0 °F 77% 30.06 in 6.2 mi WSW 11.5 mph - N/A   Partly Cloudy
6:30 PM 57.2 °F 50.0 °F 77% 30.06 in 6.2 mi WSW 9.2 mph - N/A   Partly Cloudy
7:00 PM 54 °F 46 °F 65% 30.06 in 19 mi WSW 10.4 mph - -   Scattered Clouds
7:00 PM 55.4 °F 48.2 °F 77% 30.04 in - SW 10.4 mph - N/A   Clear
7:30 PM 55.4 °F 46.4 °F 72% 30.04 in - SSW 6.9 mph - N/A   Clear
8:00 PM 53.6 °F 50.0 °F 88% 30.04 in 6.2 mi SW 8.1 mph - N/A   Partly Cloudy
8:30 PM 55.4 °F 51.8 °F 88% 30.04 in 6.2 mi SW 8.1 mph - N/A   Partly Cloudy
9:00 PM 55.4 °F 51.8 °F 88% 30.01 in 6.2 mi WSW 9.2 mph - N/A   Partly Cloudy
9:30 PM 55.4 °F 53.6 °F 94% 30.01 in 6.2 mi WSW 12.7 mph - N/A   Partly Cloudy
10:00 PM 53.6 °F 51.8 °F 94% 30.01 in 6.2 mi WSW 11.5 mph - N/A   Partly Cloudy
10:30 PM 53.6 °F 51.8 °F 94% 30.01 in 6.2 mi WSW 8.1 mph - N/A   Partly Cloudy
11:00 PM 55.4 °F 53.6 °F 94% 29.98 in 6.2 mi WSW 8.1 mph - N/A   Partly Cloudy
11:30 PM 55.4 °F 53.6 °F 94% 29.98 in - SW 10.4 mph - N/A   Clear